Wind_Speed
29 29 28 28 27 27 27 27 27 27 28 28 29 29 29 29 29 29 29 30 31 31 33 34 35 36 37 38 39 40 40 41 42 43 44 45 47 48 49 50 52 53 55 56 58 59 60 62 64 65 67 67 67 67 67 69 71 71 72 74 75 77 79 79 78 77 77 78 81 83 85 87 90 91 92 93 94 94 95 95 92 92 93 93 93 90 83
26 26 26 26 26 26 27 28 28 29 29 29 29 29 29 29 29 30 31 31 33 34 35 36 37 38 39 40 41 42 43 44 44 45 46 48 49 49 50 51 53 53 55 56 57 58 59 61 63 65 68 69 69 68 69 70 71 72 73 74 75 76 78 78 78 76 75 75 78 81 83 86 88 89 90 91 94 95 95 95 95 96 95 94 95 93 87
24 25 25 26 27 28 29 30 30 30 30 30 30 30 30 30 31 32 33 34 35 37 38 39 39 40 40 41 43 44 44 45 46 46 47 49 50 51 51 53 53 54 55 56 57 58 58 59 61 63 66 68 69 70 71 72 73 73 73 75 76 77 77 78 79 78 76 74 76 79 82 84 85 86 87 89 92 95 95 95 96 96 95 94 95 94 90
24 25 26 28 29 30 31 31 31 31 31 31 32 32 32 33 34 34 35 36 38 39 40 41 42 42 42 43 44 44 45 46 47 47 48 49 50 51 51 53 53 54 55 56 57 58 58 58 59 60 63 65 67 68 70 72 73 73 74 76 78 78 77 78 80 80 78 76 75 77 81 84 85 86 86 88 90 93 94 95 94 93 93 92 92 93 91
26 28 29 30 31 31 31 31 31 32 32 33 34 34 35 36 36 37 37 38 39 41 42 43 44 44 44 44 44 45 45 46 47 48 48 49 50 50 51 52 52 53 54 55 56 57 58 58 59 60 61 63 64 65 67 70 71 72 73 75 78 79 77 78 81 81 80 77 76 77 80 83 85 86 86 87 89 91 94 94 92 91 93 91 88 89 90
29 30 31 31 31 31 32 33 33 33 34 34 35 36 37 38 39 39 40 41 42 43 44 44 45 45 45 45 45 45 46 47 48 49 49 49 50 50 51 51 52 53 54 54 55 56 57 57 58 60 61 61 62 63 65 67 68 69 71 73 76 77 76 77 80 80 79 78 77 77 80 83 85 85 84 84 86 89 91 92 91 91 93 90 84 85 88
30 31 32 32 32 32 33 34 35 35 36 36 37 38 39 40 41 42 43 43 44 45 45 46 46 46 46 46 46 47 47 49 50 50 50 50 50 51 51 51 52 53 53 54 54 54 55 56 57 59 60 60 61 62 63 65 67 68 69 70 74 75 74 75 78 78 76 76 77 78 81 82 83 82 81 80 81 84 87 90 90 90 91 89 83 82 85
31 32 33 33 34 34 35 36 36 37 37 38 39 40 41 42 43 44 44 45 46 47 47 47 47 47 47 47 47 48 49 50 51 51 51 51 51 51 52 52 53 53 52 53 53 53 54 55 56 57 58 59 60 61 63 65 67 68 69 70 73 74 73 74 77 77 74 74 78 81 82 83 82 77 75 76 79 82 84 84 83 83 84 83 81 81 81
33 34 35 35 36 37 38 38 39 40 40 41 42 43 44 44 45 45 46 47 48 48 48 49 49 49 49 49 48 49 50 51 52 52 53 53 53 53 53 54 53 53 52 52 52 52 53 54 54 55 56 57 59 60 62 64 66 67 70 71 72 73 74 74 77 78 73 74 80 83 85 85 79 72 72 78 82 82 80 78 77 77 78 78 77 77 72
35 36 37 38 38 39 40 41 41 42 43 44 45 45 46 46 47 47 48 49 50 50 50 51 51 51 51 50 50 50 51 51 53 54 55 55 55 55 55 54 54 53 53 53 52 52 53 53 53 54 55 56 57 59 61 63 65 67 69 71 72 74 76 76 79 80 75 75 81 86 86 82 73 71 76 81 81 80 77 75 74 73 74 74 72 70 65
37 38 39 39 40 41 42 43 44 44 45 46 47 47 48 48 49 50 51 52 52 53 53 53 53 53 53 52 52 52 52 52 53 55 56 57 57 57 56 55 54 53 53 53 54 53 53 53 54 54 55 56 57 58 59 61 64 66 68 70 71 74 76 77 80 82 79 77 82 86 84 77 72 75 80 80 78 78 76 73 70 69 70 70 67 65 63
38 39 40 41 41 42 43 44 45 46 47 48 49 49 50 51 51 52 53 54 55 56 56 55 55 55 55 55 55 55 55 55 55 56 57 59 59 59 57 55 54 53 53 54 55 54 54 55 55 55 56 56 57 58 59 60 63 66 68 69 71 73 76 78 80 82 81 80 83 85 80 74 73 76 78 79 78 76 73 69 67 67 68 67 64 61 60
40 41 42 43 44 44 45 46 47 48 49 51 51 52 52 53 54 55 56 57 57 58 58 58 58 58 57 57 57 57 57 57 57 58 59 60 61 61 59 56 55 54 54 54 55 55 54 55 55 55 56 57 57 58 59 60 62 65 67 69 71 74 76 78 79 81 82 82 81 82 77 71 70 71 74 78 77 73 70 66 64 65 67 66 62 58 59
43 44 45 46 46 47 48 48 50 51 52 53 53 54 55 56 56 57 58 59 60 60 60 60 61 60 60 59 59 59 59 59 60 60 61 61 62 62 61 58 56 56 55 54 54 54 54 54 54 55 56 58 58 58 59 61 62 64 67 70 73 75 78 79 79 79 82 82 80 79 75 67 65 67 71 74 74 71 69 64 60 63 67 64 59 57 60
46 47 48 49 49 50 51 52 52 53 54 55 55 56 57 58 58 58 60 61 62 63 63 63 63 63 63 62 62 61 62 62 62 63 63 63 63 62 61 59 58 58 57 55 55 55 54 54 54 54 55 57 59 59 59 61 63 64 67 71 74 77 79 81 80 77 78 79 77 74 70 64 61 64 68 71 70 68 67 61 57 61 65 61 56 56 59
49 50 51 52 52 53 54 54 55 56 57 57 57 58 59 59 59 60 61 63 64 65 65 64 64 65 65 65 64 64 64 65 65 65 64 64 64 62 61 59 59 59 58 57 56 56 55 55 55 56 56 58 60 59 59 62 64 65 68 71 74 78 80 81 80 77 76 76 73 68 64 60 59 61 64 66 65 65 64 59 55 59 62 58 54 55 57
52 53 54 54 55 56 56 57 57 58 59 60 60 59 60 60 60 60 62 64 66 67 67 66 66 66 66 66 67 67 67 67 67 66 65 66 65 63 61 59 60 60 59 58 58 57 57 57 57 58 57 58 61 61 60 63 65 66 69 72 73 76 79 79 79 76 76 74 69 64 60 57 56 58 60 61 61 62 62 56 52 56 59 55 54 56 57
54 55 56 57 58 59 59 59 60 61 61 62 62 61 61 61 61 61 63 65 67 69 68 67 67 67 67 68 69 70 69 69 68 66 65 65 65 64 62 61 61 61 60 60 59 58 58 58 59 60 58 58 62 62 61 64 66 67 69 71 72 74 75 75 75 73 71 70 66 61 58 54 52 54 56 57 58 58 57 54 52 55 56 54 55 56 55
56 57 58 59 60 61 61 61 62 62 63 63 63 62 62 62 62 62 63 65 68 70 71 70 69 70 69 69 71 71 70 69 68 66 65 65 64 63 63 63 63 63 63 62 61 61 60 60 61 62 60 60 63 64 63 65 68 68 68 69 69 70 69 69 71 69 65 63 62 57 53 51 51 51 51 52 55 55 53 52 52 53 52 52 53 53 53
58 59 60 61 62 63 63 63 64 64 64 64 64 64 63 64 64 64 65 66 68 71 73 72 71 71 70 70 71 71 70 68 67 65 65 65 64 63 63 63 63 63 63 63 63 63 63 62 62 63 63 63 64 65 65 66 67 68 67 65 64 65 64 63 65 64 60 58 57 53 49 48 48 47 48 49 51 51 51 51 51 49 49 50 51 51 52
60 61 62 63 64 64 65 65 65 65 66 66 66 66 65 65 65 66 67 68 69 72 75 75 74 73 71 71 71 69 68 67 66 65 64 64 64 64 63 64 64 64 64 64 64 63 64 63 63 64 65 64 65 66 65 65 66 66 64 61 59 60 60 59 58 58 57 54 51 49 47 45 44 44 46 48 48 47 47 49 49 47 46 48 49 49 50
62 63 64 64 65 66 66 67 67 67 68 68 68 68 68 68 68 69 70 70 71 72 74 75 74 73 72 70 69 67 66 65 65 64 64 64 65 65 65 65 65 64 65 65 65 64 65 65 65 66 66 65 66 66 64 63 64 63 61 58 56 56 57 55 53 54 53 49 47 46 45 42 41 43 44 45 44 43 44 47 47 45 44 45 47 48 48
63 64 65 66 67 68 68 69 70 70 70 71 71 71 70 70 71 71 71 71 71 72 73 73 73 72 70 68 67 66 65 65 65 65 64 64 65 66 67 67 66 66 66 67 66 66 65 65 66 67 66 66 67 66 62 60 59 58 56 55 54 54 54 52 50 50 48 44 44 45 42 40 40 41 41 42 42 41 43 46 46 44 43 43 45 46 46
64 65 66 68 69 69 70 71 72 72 72 73 73 73 72 72 72 72 72 71 70 70 71 71 70 70 68 65 64 64 64 64 65 65 65 64 64 66 68 69 68 67 68 69 68 68 66 65 67 67 66 66 66 64 60 57 55 53 51 51 53 53 52 49 46 44 43 41 43 42 39 38 38 38 39 40 41 41 43 45 44 43 41 41 43 44 44
66 67 68 69 70 70 71 72 72 73 73 73 74 74 73 72 71 71 70 69 68 67 68 69 69 68 66 64 62 62 63 63 65 66 66 66 65 66 68 69 69 69 69 70 70 70 68 67 67 67 65 63 63 60 57 54 52 48 47 50 53 52 49 46 42 39 40 42 42 38 35 36 37 36 37 40 40 40 41 42 42 41 39 39 41 42 42
68 69 70 70 71 71 71 72 72 73 73 73 72 72 71 69 69 68 67 66 65 64 65 67 68 68 65 62 61 62 62 63 64 65 66 66 67 67 68 69 70 70 70 70 70 70 70 69 67 66 64 61 58 56 53 51 48 45 46 51 52 48 44 42 39 37 39 42 39 35 34 36 36 35 37 39 39 39 39 39 40 39 38 38 39 40 40
70 71 71 71 71 71 71 71 71 71 71 70 69 68 67 65 65 64 64 63 62 62 61 63 66 67 65 62 61 62 62 63 64 65 66 67 67 68 68 69 70 71 70 70 69 69 69 69 67 66 62 58 55 53 51 48 46 45 47 51 50 43 39 38 37 37 40 39 35 33 35 35 34 34 36 37 37 37 37 38 39 38 37 37 38 39 40
71 71 70 70 70 70 69 68 67 67 66 66 65 64 63 62 62 62 61 60 59 59 59 59 62 65 64 62 61 62 63 64 65 66 67 68 68 68 69 69 70 71 70 69 69 68 67 67 66 64 60 56 51 49 47 46 45 45 48 49 45 38 34 34 35 38 41 37 32 33 35 34 33 34 36 37 37 36 36 37 38 38 37 37 38 39 41
70 69 68 67 67 66 65 64 63 62 62 62 62 62 62 60 60 60 59 58 57 57 57 57 59 62 63 62 62 63 64 65 66 67 68 68 69 69 69 70 70 69 69 68 67 66 66 65 63 61 58 54 49 46 45 44 43 45 47 45 38 33 32 34 35 39 40 35 31 33 35 33 31 34 36 36 35 35 35 36 37 38 38 38 39 40 42
67 66 64 64 63 62 61 60 60 60 60 60 60 61 60 60 59 59 58 58 57 56 55 56 58 61 62 62 62 64 65 66 67 68 69 69 69 69 69 69 69 68 67 66 65 63 62 62 60 57 55 52 48 45 43 43 43 45 44 39 32 31 34 36 36 38 38 33 30 33 34 31 31 34 35 33 33 34 35 36 37 38 38 39 40 42 43
63 62 61 60 60 59 59 59 58 58 58 58 59 59 59 59 58 57 57 57 56 56 56 56 57 60 62 63 64 65 66 67 68 69 69 69 69 69 68 68 67 67 66 64 62 61 58 55 54 53 52 49 46 43 42 42 43 43 39 34 31 32 35 35 34 34 34 31 30 32 33 31 31 33 33 32 32 34 35 35 36 38 39 40 41 42 43
60 59 58 58 58 57 57 57 57 57 57 57 58 58 57 57 56 55 55 55 55 56 56 56 57 59 62 64 66 67 67 68 69 69 69 69 68 68 67 67 66 65 63 60 59 58 54 50 49 50 49 46 43 42 41 40 40 39 36 33 33 34 34 33 32 32 31 30 29 31 31 31 31 32 32 31 32 33 34 35 36 37 39 40 40 41 43
57 57 56 56 56 56 55 55 55 55 55 56 57 56 55 55 54 54 54 54 55 56 57 57 58 59 61 63 66 67 67 68 69 69 69 69 68 67 65 64 63 61 59 57 55 53 51 48 47 47 46 43 41 41 40 37 36 36 35 33 32 32 32 31 30 29 29 28 29 31 31 31 31 31 31 31 31 32 33 35 35 36 38 39 40 41 43
55 54 54 54 54 54 54 53 53 54 54 54 55 54 53 53 53 53 54 55 56 57 58 59 59 60 60 62 65 67 67 68 69 69 68 67 66 64 61 60 59 57 55 54 52 50 48 47 46 45 43 41 40 40 38 35 34 35 33 30 29 30 30 29 28 28 28 29 30 31 31 30 30 30 31 31 31 32 33 33 34 35 37 39 41 42 43
53 52 52 52 52 53 53 52 52 53 53 52 53 53 53 53 53 54 55 56 57 58 59 60 60 60 61 62 64 66 67 67 67 66 65 64 63 60 58 56 55 54 53 52 50 47 45 45 44 42 40 39 39 38 36 34 33 32 30 28 28 28 28 28 27 27 27 29 30 31 30 29 29 30 30 30 31 32 32 32 33 35 37 39 41 42 43
51 50 50 51 51 52 52 52 52 52 51 51 51 52 53 53 54 55 56 57 59 60 61 62 62 62 62 62 63 63 64 65 65 64 63 61 59 57 55 54 53 52 51 50 48 46 44 43 42 41 38 37 37 36 34 33 32 30 28 27 26 26 27 27 26 26 27 28 29 30 29 29 29 30 30 31 31 32 32 32 33 34 37 39 41 42 42
50 49 49 50 51 51 52 52 51 51 51 50 51 51 52 54 55 57 58 60 61 62 62 63 63 63 63 62 62 60 60 60 60 60 59 58 56 54 53 52 51 50 49 48 46 44 43 42 41 39 37 36 35 34 32 31 30 28 27 26 26 26 26 25 25 25 26 27 28 29 28 29 29 30 30 31 32 32 32 33 33 34 37 39 42 43 43
50 49 49 49 50 51 52 51 51 51 51 51 52 53 54 56 57 59 60 61 62 63 64 64 64 63 62 61 61 59 56 55 55 56 56 55 54 53 52 50 48 48 47 45 43 42 41 40 39 37 36 35 34 32 30 30 28 27 26 26 25 25 25 25 24 25 25 26 27 28 28 29 30 31 31 31 32 33 33 33 34 35 38 41 43 44 43
50 49 49 49 49 50 51 51 51 51 52 53 54 54 56 57 59 60 61 62 63 64 65 65 64 62 60 60 60 58 54 52 51 52 53 52 51 50 49 47 45 45 44 42 41 40 39 38 36 35 34 33 32 30 29 28 27 26 25 25 25 25 25 24 24 24 24 25 26 27 28 30 31 32 32 32 33 33 34 34 35 37 40 42 42 42 39
50 49 49 49 49 49 50 50 50 51 52 54 55 56 57 59 60 61 62 63 64 64 64 63 63 61 58 57 57 56 54 52 50 50 50 49 47 46 45 44 43 42 41 40 39 38 37 36 35 33 32 31 30 28 28 27 26 25 25 25 25 24 24 24 23 23 24 25 26 27 28 30 31 32 33 33 34 34 34 35 36 38 40 40 40 39 37
50 49 49 50 50 49 49 50 50 51 53 55 57 58 59 60 61 62 62 63 64 64 62 61 61 59 56 54 54 54 53 52 50 48 46 45 44 43 42 41 40 39 38 37 36 36 35 34 32 31 30 29 27 27 26 26 25 24 24 24 24 23 23 23 23 23 23 24 26 27 28 29 31 32 33 34 34 35 35 36 37 39 39 39 38 38 36
49 49 50 50 51 50 50 51 52 53 55 57 59 60 61 61 62 63 63 62 62 62 61 60 59 57 55 53 53 52 51 50 48 46 44 42 41 40 39 38 37 36 35 35 34 34 32 31 29 28 27 27 26 25 25 25 24 23 24 23 23 22 22 22 22 22 23 24 25 26 27 29 31 32 33 34 35 36 36 37 38 39 39 39 39 38 37
48 49 49 50 51 51 51 52 53 55 57 59 60 61 61 61 62 62 62 61 60 60 59 57 56 54 53 52 51 49 48 47 45 43 42 40 39 39 37 36 35 34 33 32 32 30 29 28 26 26 25 25 24 24 24 23 22 22 22 22 22 21 21 21 21 22 23 24 25 26 27 29 30 31 33 34 35 36 37 38 39 39 39 40 40 40 40
47 48 48 49 50 51 51 52 55 57 58 59 60 61 62 62 61 61 61 60 59 58 55 53 52 52 51 50 49 47 45 43 42 40 39 38 37 36 35 34 33 32 31 30 29 28 26 25 24 24 24 23 23 23 23 22 21 21 22 22 21 21 20 20 21 22 24 24 25 26 27 28 30 31 33 34 35 37 38 40 41 42 42 42 42 43 43
48 48 48 49 50 51 52 54 55 57 59 60 61 62 62 61 61 60 60 60 58 56 53 51 50 51 50 49 47 45 43 41 39 38 37 36 34 33 33 32 31 29 28 28 27 25 24 23 23 23 22 21 21 21 22 21 21 21 21 21 21 20 20 21 23 24 25 25 25 26 27 29 30 31 33 34 36 38 39 41 41 42 42 43 44 44 44
48 48 49 50 51 52 54 55 56 58 59 60 61 62 61 60 59 59 59 59 57 54 52 50 49 49 49 47 45 43 41 39 38 36 35 34 33 32 31 30 29 28 27 26 25 24 23 22 21 21 21 20 20 20 21 22 21 21 21 22 21 20 21 22 23 24 25 25 26 27 28 29 31 32 33 34 35 36 37 38 38 39 41 42 43 42 41
48 48 49 50 52 54 55 57 57 58 59 60 61 61 60 58 58 58 58 56 54 53 51 49 49 48 47 45 43 41 39 38 36 34 33 33 32 30 30 29 27 26 25 25 24 23 22 21 20 19 19 19 19 20 22 22 21 21 21 21 21 20 21 22 23 24 25 26 27 28 29 30 31 31 32 33 34 35 36 37 38 39 40 41 41 41 40
47 48 49 51 53 55 56 57 58 58 59 60 61 61 59 58 58 58 56 54 52 51 50 49 48 47 45 43 42 40 38 36 35 33 32 31 30 29 28 27 26 25 24 23 23 22 21 20 19 18 18 18 19 20 22 22 22 21 21 21 20 20 21 22 23 24 25 26 27 28 29 30 30 31 32 32 33 33 35 36 37 38 39 41 41 41 41
47 48 50 52 54 55 56 58 59 59 59 59 59 59 58 58 58 57 55 53 51 50 49 48 47 46 44 42 40 38 36 35 34 32 31 30 29 28 27 26 25 24 23 22 22 22 21 19 18 17 17 17 18 19 21 22 22 21 20 20 20 20 21 22 23 24 25 26 27 28 29 30 30 31 31 31 32 32 33 34 36 37 38 40 40 41 41
48 49 50 52 54 55 56 58 59 60 60 59 58 57 57 57 56 55 53 51 50 49 48 46 45 43 42 41 40 38 36 34 33 31 30 29 28 27 26 25 24 23 22 22 22 21 20 18 17 16 16 16 18 19 21 21 21 20 20 20 21 21 21 22 23 24 25 26 27 28 29 30 31 31 31 32 32 32 33 33 34 35 36 38 39 39 40
48 50 51 53 54 55 56 58 59 60 59 59 58 57 56 55 54 52 50 48 48 47 47 45 44 42 41 39 38 37 35 34 32 30 29 29 27 26 25 24 24 23 22 22 21 20 18 17 15 14 14 15 17 19 20 20 20 20 20 20 21 21 22 22 23 24 25 26 27 28 29 30 31 32 32 33 33 33 33 33 34 34 35 36 36 37 37
49 50 52 53 55 56 57 58 58 59 59 58 58 57 56 54 52 50 48 46 46 46 45 44 43 41 40 38 37 36 34 33 31 29 29 28 26 25 24 24 24 23 23 22 20 18 17 15 13 13 14 16 17 19 20 20 20 20 20 20 20 21 22 23 24 24 25 26 28 29 29 31 32 32 33 33 33 34 34 33 34 34 34 35 35 35 35
Wind_Direction
278 279 280 280 280 280 280 279 279 280 281 282 283 284 285 285 284 283 282 281 281 281 280 280 281 281 281 281 281 280 281 281 280 280 280 280 279 279 278 277 275 274 274 272 271 271 269 269 268 268 267 267 266 265 264 264 264 263 263 263 263 264 263 263 262 261 260 260 261 262 262 262 263 263 264 264 264 263 262 262 261 259 259 259 260 259 258
279 279 279 280 281 282 283 283 284 284 284 284 284 284 284 284 284 283 282 282 282 282 283 283 283 284 285 285 284 284 284 283 283 283 283 283 282 281 281 279 278 277 276 275 273 272 270 269 268 268 267 267 266 266 265 265 264 264 264 264 264 264 264 264 263 262 260 260 261 261 261 262 262 263 264 264 265 264 263 263 262 261 260 260 260 259 258
277 278 279 281 282 284 285 285 286 287 286 286 286 286 286 286 286 287 287 288 288 288 288 288 287 287 287 287 287 287 287 287 287 287 287 286 285 285 284 283 282 281 279 278 276 275 273 271 269 268 267 266 265 265 264 264 264 264 265 265 265 264 265 265 265 264 262 261 262 262 263 262 262 263 263 263 264 264 264 263 263 262 262 262 262 261 259
278 279 281 282 283 283 284 284 285 286 286 287 287 288 288 289 289 290 291 291 292 292 291 290 289 289 288 288 288 288 289 289 289 290 290 290 289 289 288 286 285 284 282 281 279 278 276 274 272 270 269 268 266 265 264 263 263 264 264 264 265 265 265 265 266 265 264 263 262 263 264 264 264 263 263 263 264 264 265 264 264 264 264 263 262 263 262
280 281 281 281 282 282 283 283 284 285 285 287 288 288 289 289 290 290 290 291 290 290 290 289 289 289 289 289 289 289 290 291 292 292 292 292 292 292 290 289 288 286 284 283 281 280 278 277 275 273 271 270 269 268 267 266 265 265 264 264 265 265 265 265 266 266 265 265 263 262 263 263 263 263 263 264 265 265 266 266 266 266 265 263 262 263 263
281 281 281 281 282 282 283 284 285 285 285 286 286 287 287 288 289 289 290 290 289 288 288 288 288 289 289 289 289 290 291 293 294 294 295 295 295 294 293 292 290 288 286 284 282 280 279 277 276 274 273 273 272 272 271 270 269 268 267 267 267 267 266 266 266 267 267 267 266 264 263 263 262 262 262 263 264 265 266 267 267 266 265 264 262 262 262
280 280 281 281 282 282 283 284 285 286 286 287 286 286 287 288 289 290 290 290 289 288 288 289 289 290 290 290 290 290 292 293 295 296 296 296 296 295 295 293 291 289 287 285 283 281 279 278 276 275 275 275 274 274 273 273 272 271 270 270 269 269 269 268 269 269 269 270 270 268 266 265 264 264 264 264 265 265 266 265 265 265 265 265 264 263 262
281 281 281 282 283 284 285 286 286 287 287 287 287 287 288 289 289 290 290 289 289 290 290 291 291 291 291 291 291 292 294 295 296 297 297 297 297 297 296 295 292 290 287 285 284 282 280 278 277 277 276 276 276 275 274 274 273 273 272 272 271 272 272 271 271 271 271 272 272 271 269 268 267 268 270 270 269 267 266 265 265 265 266 266 265 262 261
281 281 282 283 284 286 286 287 287 287 287 288 288 289 289 289 290 289 289 289 290 291 292 292 292 292 292 292 293 294 296 297 298 298 298 298 298 298 298 296 294 291 289 286 284 282 280 279 278 277 276 276 275 275 274 274 274 274 274 274 275 275 274 274 274 273 273 272 272 271 271 270 272 274 275 273 270 269 268 268 268 267 266 265 263 261 261
280 281 282 283 284 285 286 286 287 288 288 289 290 290 291 291 291 291 291 291 291 292 292 293 293 293 293 294 295 296 297 298 298 299 299 299 299 299 298 297 295 293 290 288 285 283 281 280 278 277 276 275 274 274 275 275 275 275 276 276 277 276 276 276 275 275 274 273 272 271 271 273 276 277 274 272 271 271 270 269 268 267 266 265 263 262 260
280 281 281 282 283 285 286 287 288 289 290 290 291 291 291 291 292 292 292 293 293 294 294 294 294 294 295 296 296 297 298 298 298 299 299 300 300 299 299 298 296 293 290 288 286 283 282 281 279 278 277 276 275 275 275 275 276 276 276 276 276 276 276 276 275 276 276 274 273 272 274 276 278 275 273 272 272 271 270 269 268 268 267 266 264 262 260
282 282 283 284 285 285 286 288 289 290 290 291 291 291 292 292 293 293 294 294 294 294 294 294 295 295 296 297 298 298 299 299 299 299 299 300 300 299 299 298 296 292 290 288 286 285 284 283 281 281 280 278 278 277 276 276 276 276 276 276 275 275 275 275 275 275 276 275 274 274 276 277 276 274 274 274 272 270 270 269 268 268 266 264 261 259 257
283 284 284 285 286 286 287 288 289 289 290 290 291 291 292 292 293 294 294 294 294 294 295 295 295 296 297 298 299 299 299 299 300 300 300 300 300 300 300 298 295 292 290 288 287 287 287 285 285 284 283 281 280 279 279 278 278 278 278 277 277 276 275 275 275 275 276 275 275 276 277 277 276 275 274 273 272 271 269 267 265 265 263 260 256 254 253
285 285 286 286 287 287 288 288 289 289 289 290 291 291 292 292 293 294 294 294 294 294 294 294 295 296 297 298 299 299 299 300 300 300 300 300 300 300 300 298 295 292 290 290 289 289 288 286 285 284 283 283 282 281 280 280 279 280 280 280 279 278 277 276 276 276 276 277 277 277 278 278 278 276 273 272 271 270 268 265 264 263 261 258 254 252 250
286 286 287 287 288 289 289 290 290 290 290 291 291 292 292 293 293 294 294 293 293 293 293 294 295 297 298 298 299 299 300 300 300 299 300 300 300 300 299 297 296 293 292 292 292 291 289 288 286 285 284 284 283 282 283 283 282 282 282 282 281 280 280 279 278 278 278 278 278 278 279 280 278 274 272 271 270 268 266 264 263 262 260 257 254 252 249
287 287 288 289 289 290 290 291 292 292 292 292 292 292 292 292 293 293 293 293 292 293 293 294 296 297 298 298 299 299 300 300 300 300 300 300 300 299 298 297 296 294 294 294 294 293 292 290 288 287 286 285 285 285 285 285 284 284 283 282 282 282 282 282 282 282 281 280 279 279 279 278 276 272 270 269 268 267 264 261 260 260 259 256 253 250 248
288 289 290 290 291 291 292 292 293 293 292 292 292 292 292 292 292 293 293 293 293 293 293 294 295 296 297 298 299 299 299 299 300 301 301 300 299 299 298 297 296 295 295 295 294 294 292 291 290 288 288 289 288 287 286 286 285 284 283 283 283 283 282 283 283 283 282 281 281 281 280 277 274 270 268 266 264 263 262 261 259 258 257 254 251 248 246
289 290 291 292 292 292 293 293 293 293 293 293 292 292 292 292 292 293 293 293 293 293 294 294 295 296 297 298 298 298 299 299 300 300 300 299 299 299 299 298 296 296 296 296 295 294 292 292 291 290 290 291 289 288 288 287 285 285 284 284 284 283 283 283 282 281 281 281 282 281 279 277 273 268 266 264 263 261 260 259 256 254 254 252 250 248 246
291 291 292 292 293 293 293 293 293 293 293 292 292 293 293 293 293 293 293 293 294 294 294 295 295 296 297 297 297 297 298 299 300 300 299 298 298 298 298 297 297 297 297 297 296 295 294 294 293 293 293 293 291 290 289 288 287 286 285 285 284 284 283 283 281 280 280 280 279 279 278 275 271 268 265 263 261 260 258 256 254 252 252 251 249 247 245
291 292 292 293 293 293 293 293 293 293 293 293 293 293 293 294 294 294 293 293 293 294 294 295 295 295 296 296 296 297 298 299 299 299 298 297 297 297 297 296 296 296 297 296 296 296 295 295 295 294 294 294 292 291 290 289 289 288 286 286 285 284 282 281 280 280 280 278 278 278 276 273 269 267 264 261 259 258 257 255 252 250 249 248 247 245 244
292 292 292 292 292 293 293 293 293 293 293 293 293 293 294 294 294 294 293 293 293 293 294 295 295 295 296 296 296 297 298 298 298 297 297 297 297 297 296 296 296 296 296 296 296 296 296 296 296 295 294 294 293 292 291 291 291 290 288 287 286 284 282 280 279 279 279 278 278 277 274 271 268 265 262 259 257 256 255 253 251 248 246 246 245 244 242
292 292 292 292 292 293 293 293 293 293 293 293 293 294 294 294 294 293 293 293 293 293 293 294 294 295 295 295 296 297 298 297 297 297 297 297 297 297 296 296 296 297 296 296 296 296 296 297 297 296 295 295 294 292 292 292 291 291 289 287 285 283 280 279 279 278 278 279 278 276 272 270 266 262 260 258 257 254 252 251 249 247 244 243 243 242 241
292 292 292 292 293 293 293 293 293 293 293 294 294 294 294 294 294 294 293 293 293 293 293 293 293 294 294 295 296 297 297 297 297 297 297 297 297 296 296 296 297 297 297 297 297 297 297 298 297 296 296 296 295 294 293 292 291 290 289 287 284 281 278 278 277 277 279 279 276 273 271 268 264 261 259 257 255 251 249 247 246 244 241 240 241 241 239
292 292 293 293 294 294 294 294 294 294 294 294 294 294 294 294 294 294 293 293 293 293 293 293 293 293 294 295 296 297 297 297 297 296 296 296 296 296 297 297 298 298 298 298 298 298 298 298 297 296 296 296 295 294 294 293 291 290 288 285 281 278 277 277 277 278 279 277 272 271 270 268 264 260 257 255 252 249 247 246 246 244 240 237 238 239 238
293 294 294 295 295 295 295 294 294 294 294 294 294 294 294 294 294 293 293 294 294 294 294 293 293 293 294 295 296 296 296 297 297 296 296 296 296 297 297 297 298 299 299 299 299 299 298 298 297 296 296 295 294 294 294 293 290 289 286 282 278 276 278 279 279 278 276 272 270 271 270 266 262 258 254 252 249 247 246 245 245 243 239 236 236 236 235
295 295 296 296 296 296 295 295 294 294 294 294 294 294 294 294 294 294 294 294 294 294 294 294 294 293 294 296 296 296 296 296 296 296 296 296 297 297 297 298 298 299 299 299 299 299 298 298 297 296 296 295 295 295 294 292 289 287 283 279 276 277 279 281 280 276 271 269 270 271 267 263 260 256 253 251 248 246 244 242 242 240 237 234 233 233 233
296 296 296 296 296 296 295 295 295 295 295 295 295 294 295 295 295 295 295 295 295 294 294 294 294 294 295 297 297 297 297 297 296 296 296 297 297 298 298 298 298 298 298 298 298 298 298 298 298 297 296 296 296 295 293 291 288 284 280 277 278 280 282 282 280 275 269 268 268 266 262 260 258 254 251 250 247 244 241 239 239 238 234 231 230 230 230
297 297 296 296 296 295 295 295 295 295 295 295 295 296 296 296 296 296 296 296 295 295 295 295 294 295 296 298 298 298 297 297 297 297 297 297 298 298 298 298 298 298 298 298 298 298 298 298 297 297 296 296 295 294 291 288 286 283 279 278 280 283 284 280 275 270 267 265 263 260 258 256 254 251 249 247 244 241 238 237 236 235 232 229 226 226 227
297 296 296 296 296 296 296 296 296 296 296 296 296 296 297 297 297 297 297 297 296 296 296 296 295 296 297 298 298 298 298 298 298 298 298 298 298 298 298 298 298 297 297 298 298 298 298 298 297 296 296 295 294 292 289 287 285 282 279 279 282 285 281 273 266 264 263 263 259 257 256 254 250 248 247 246 244 240 237 234 234 233 230 227 224 223 224
297 297 297 297 297 297 297 296 296 296 296 297 297 297 298 298 299 299 299 298 298 297 297 297 297 297 298 299 299 299 298 299 299 299 299 299 299 298 298 298 298 298 298 298 298 298 297 296 296 295 294 293 292 291 289 287 283 280 279 282 285 281 272 266 263 262 263 262 258 255 255 253 248 247 247 245 242 239 235 233 232 230 229 226 224 223 224
298 298 298 297 297 297 297 297 297 297 297 297 297 297 298 299 299 300 300 299 299 299 299 299 299 299 299 300 300 300 300 300 299 299 299 299 299 299 299 299 299 298 298 298 298 296 295 294 294 293 291 290 290 290 287 284 282 281 282 283 279 271 266 265 264 263 262 260 255 254 254 251 246 245 244 242 239 236 234 232 230 229 228 227 226 225 225
298 298 298 297 297 298 298 298 298 298 298 298 298 298 299 299 299 299 299 299 300 300 300 300 300 300 300 301 301 301 301 300 300 300 300 300 299 299 299 299 299 298 298 298 296 295 294 294 293 291 289 290 290 289 285 283 282 282 281 277 272 268 266 265 263 261 260 257 252 250 250 248 245 243 241 239 237 235 233 231 230 229 229 229 228 227 227
298 298 298 298 298 299 299 299 299 299 299 299 299 299 300 299 299 300 300 300 300 300 300 300 300 300 300 301 301 300 301 301 301 301 300 300 300 299 299 299 299 298 298 297 295 294 295 294 292 290 290 291 290 287 284 284 282 280 276 273 270 268 266 264 262 259 257 253 248 246 245 244 242 241 239 237 235 233 232 231 230 230 229 229 228 228 229
297 298 299 299 300 300 300 300 300 300 300 300 300 300 300 300 300 301 301 301 301 300 301 301 301 301 302 302 301 301 302 302 301 300 300 300 299 299 299 299 298 298 297 296 295 295 295 294 292 291 291 291 289 286 285 283 280 276 274 272 270 267 265 263 260 256 252 248 244 243 242 241 240 239 237 234 232 231 230 230 230 229 229 229 229 229 230
298 299 300 300 301 301 301 301 301 301 301 301 301 301 301 301 301 301 301 302 302 302 303 303 303 303 303 303 302 302 302 302 301 301 301 300 300 300 300 299 298 298 297 296 295 295 295 293 291 291 291 289 287 286 284 282 278 276 274 271 268 265 263 260 257 254 250 246 243 242 240 238 237 236 234 231 229 229 228 228 228 228 229 229 229 230 231
299 300 301 301 302 302 302 302 303 302 302 302 301 301 301 302 303 303 304 305 305 305 305 305 305 305 304 304 303 303 303 303 302 302 302 301 300 300 300 300 299 298 297 295 295 295 294 293 291 291 290 288 286 284 282 280 277 275 273 269 265 262 261 259 256 252 248 245 243 240 237 235 235 234 231 229 227 226 225 225 226 227 228 229 230 231 231
300 301 302 303 303 303 304 304 304 303 303 302 302 303 304 305 306 306 307 307 307 307 306 306 306 306 306 306 305 304 304 303 303 303 302 301 301 301 300 299 299 297 296 295 295 295 293 292 291 290 288 286 283 281 280 277 275 273 270 267 263 260 258 257 253 249 245 242 241 239 236 233 232 231 229 227 225 223 222 222 223 224 226 228 229 230 230
301 302 303 304 304 305 305 305 305 304 304 304 304 305 306 307 308 308 308 308 308 308 308 308 308 307 308 308 307 305 305 305 304 303 302 301 302 301 300 299 298 296 295 295 295 294 292 291 290 288 286 284 282 280 278 275 273 270 268 265 262 260 257 254 249 246 243 241 239 237 233 230 229 228 226 225 223 221 220 220 220 222 224 225 227 228 229
302 303 304 304 305 305 305 305 305 305 305 305 306 307 308 308 308 309 309 309 309 309 310 309 309 309 310 310 308 307 307 307 305 303 302 301 301 300 299 297 296 295 294 295 294 292 290 289 287 285 284 283 281 279 276 273 270 267 265 262 260 258 255 252 248 244 240 238 237 235 232 229 227 226 224 223 221 220 219 218 219 221 223 226 227 228 229
302 303 304 304 304 304 304 304 304 304 305 306 307 308 309 309 310 310 310 311 311 311 310 311 310 310 311 310 309 308 308 308 306 304 303 302 301 299 297 296 296 295 294 294 292 290 288 287 285 284 283 281 279 277 273 270 267 264 261 258 257 255 253 250 247 242 238 235 234 233 231 229 227 226 224 222 220 219 219 218 219 221 224 226 228 229 228
302 304 304 305 305 305 304 304 305 306 307 308 309 310 310 311 311 311 312 312 312 311 311 312 311 311 311 311 310 309 309 308 307 306 304 302 301 299 297 296 296 295 293 292 289 287 286 286 285 284 282 279 276 273 270 267 264 260 257 255 254 252 250 248 245 242 238 235 234 232 230 228 227 226 225 222 220 219 219 218 220 222 224 225 227 227 226
303 304 305 305 305 305 306 306 307 308 309 310 310 311 311 312 312 313 313 313 313 313 313 313 313 312 313 312 311 310 310 309 308 307 305 304 302 300 298 297 296 294 292 291 289 288 287 286 285 283 280 277 274 270 267 265 262 258 256 254 252 250 248 247 244 242 238 236 233 232 230 229 228 227 226 224 221 220 219 219 221 223 224 225 226 226 224
303 304 304 305 305 305 306 307 308 309 310 310 311 311 311 312 313 314 314 314 314 313 314 314 313 313 312 312 311 310 310 309 308 307 306 304 302 301 300 298 296 294 293 291 290 288 287 285 283 280 277 274 272 269 267 264 260 257 254 251 249 247 246 245 243 241 238 235 232 231 229 229 228 227 226 224 222 221 220 220 221 223 225 225 226 226 224
302 303 304 304 304 305 307 308 309 310 310 311 311 312 313 314 315 315 315 315 315 314 314 314 314 313 313 312 312 311 310 309 308 307 306 304 303 301 300 298 296 295 293 291 289 288 286 283 280 277 275 273 271 268 266 263 259 255 251 249 246 243 241 240 239 237 235 233 231 229 228 228 228 227 226 224 223 221 220 220 221 222 224 225 225 226 225
303 303 304 304 305 306 307 309 309 310 311 312 312 313 314 316 316 316 316 316 316 316 315 316 315 315 314 313 313 313 312 311 310 308 307 305 303 301 299 298 297 295 293 291 289 287 286 283 279 277 275 273 271 268 264 261 257 252 248 246 243 240 237 235 234 234 233 231 229 228 227 227 227 227 226 225 224 224 224 224 225 226 226 227 228 229 229
303 304 304 305 306 308 309 310 311 311 312 312 313 314 315 317 318 318 318 318 317 316 316 316 316 316 315 314 314 314 313 312 311 309 308 305 303 301 300 298 297 296 294 292 290 287 285 282 279 277 276 273 270 265 262 259 255 251 247 244 241 239 237 236 235 234 233 231 229 228 227 227 227 227 227 227 227 227 228 229 229 230 231 232 234 235 234
303 304 305 306 308 309 310 311 311 312 313 313 314 315 317 318 319 319 319 318 318 317 317 317 317 317 316 316 315 315 314 312 311 310 308 305 303 302 301 300 298 297 295 292 289 287 283 281 279 277 274 270 266 263 260 259 256 252 248 245 242 238 237 236 235 234 233 232 230 230 229 230 230 230 230 229 229 229 229 229 229 229 230 232 234 235 235
304 305 306 307 308 309 310 311 312 312 314 315 316 317 318 320 320 320 320 319 318 318 318 318 318 318 317 317 316 315 314 313 312 311 309 306 304 303 302 300 299 297 294 291 288 285 282 280 278 276 272 268 265 262 260 259 256 253 251 248 244 239 237 236 235 234 234 233 232 232 231 232 232 233 233 232 232 231 231 231 230 230 230 231 232 233 233
305 306 307 308 309 310 311 312 313 314 315 316 317 318 319 321 322 321 321 320 319 318 318 319 319 319 319 318 317 316 316 315 314 312 309 306 305 304 302 300 298 295 292 289 286 283 282 281 278 274 271 267 263 259 258 257 256 254 251 249 246 242 239 237 236 236 236 235 234 234 234 234 234 235 235 235 234 233 233 233 233 232 232 232 233 233 233
306 307 308 309 310 311 312 313 314 315 316 317 318 319 320 322 322 322 321 320 319 318 319 319 319 319 319 318 317 317 317 316 314 311 308 306 305 304 302 299 297 294 290 287 285 283 282 281 279 275 270 265 261 257 256 256 255 253 249 247 246 244 241 239 237 237 237 237 236 235 235 236 236 236 236 236 236 235 235 235 234 234 234 234 235 235 235
307 309 310 310 311 312 313 314 315 316 316 318 319 320 322 323 323 322 321 320 319 319 319 320 321 320 320 319 318 317 317 316 314 311 308 307 306 304 301 298 295 292 289 286 285 283 283 283 280 275 268 262 258 256 254 253 252 249 246 244 243 243 243 241 239 238 237 238 238 237 236 237 237 237 237 237 237 236 236 235 235 235 235 235 235 235 235
309 310 310 311 312 313 314 315 316 316 317 318 320 321 323 323 323 322 321 320 320 320 321 321 321 321 320 319 318 317 317 315 313 311 309 307 306 304 301 298 295 292 289 287 286 285 284 282 276 267 259 254 252 251 251 251 250 248 246 243 241 240 241 240 240 238 237 237 237 237 237 237 238 238 239 239 239 238 237 236 235 235 234 234 234 234 234
Height
10496 10495 10494 10494 10493 10493 10492 10491 10491 10490 10489 10488 10487 10486 10485 10485 10484 10483 10482 10481 10480 10479 10478 10476 10475 10473 10472 10470 10469 10467 10467 10465 10465 10463 10461 10460 10458 10456 10455 10453 10451 10450 10448 10445 10444 10443 10441 10438 10435 10432 10430 10429 10430 10431 10430 10428 10425 10425 10424 10423 10423 10421 10419 10422 10428 10433 10435 10435 10430 10428 10428 10424 10420 10420 10422 10421 10421 10422 10422 10424 10432 10433 10431 10435 10434 10438 10455
10492 10491 10491 10490 10489 10488 10488 10487 10486 10486 10485 10484 10483 10482 10481 10480 10479 10478 10477 10477 10475 10474 10472 10471 10469 10468 10466 10464 10462 10461 10460 10458 10458 10456 10454 10452 10451 10449 10447 10445 10443 10442 10439 10437 10436 10434 10432 10430 10427 10424 10421 10420 10420 10421 10420 10417 10415 10414 10414 10413 10412 10410 10409 10410 10413 10418 10424 10424 10420 10417 10416 10412 10410 10411 10411 10409 10407 10407 10409 10412 10414 10414 10418 10424 10420 10424 10441
10489 10488 10487 10486 10485 10485 10484 10483 10482 10481 10480 10479 10479 10478 10477 10476 10475 10473 10472 10471 10469 10468 10466 10465 10463 10462 10460 10458 10456 10454 10452 10450 10449 10449 10446 10444 10442 10440 10439 10436 10434 10433 10430 10428 10426 10424 10423 10421 10419 10416 10412 10409 10410 10410 10409 10407 10405 10404 10404 10402 10400 10399 10400 10399 10399 10403 10410 10413 10411 10407 10404 10401 10401 10401 10400 10399 10394 10393 10396 10397 10396 10397 10405 10412 10408 10410 10424
10485 10485 10484 10483 10482 10481 10480 10479 10478 10477 10476 10475 10474 10473 10472 10471 10469 10468 10467 10466 10464 10462 10460 10458 10457 10455 10454 10452 10449 10447 10446 10443 10442 10440 10438 10436 10433 10431 10429 10427 10425 10423 10420 10418 10416 10413 10412 10410 10409 10407 10403 10400 10400 10399 10398 10397 10396 10395 10395 10391 10387 10388 10391 10389 10386 10388 10394 10400 10403 10399 10393 10390 10389 10388 10389 10388 10385 10382 10381 10380 10384 10388 10391 10395 10397 10397 10404
10482 10481 10480 10480 10479 10477 10476 10475 10474 10473 10472 10471 10469 10468 10466 10465 10464 10463 10462 10460 10459 10456 10454 10452 10450 10448 10447 10445 10443 10440 10438 10436 10434 10432 10430 10428 10425 10423 10420 10418 10416 10413 10410 10408 10406 10403 10401 10400 10399 10396 10393 10391 10390 10389 10388 10386 10385 10386 10384 10381 10377 10377 10381 10379 10374 10375 10380 10385 10390 10389 10382 10378 10376 10377 10378 10378 10375 10371 10367 10366 10373 10377 10371 10375 10387 10387 10386
10478 10477 10476 10476 10475 10474 10472 10471 10470 10469 10468 10466 10465 10463 10461 10460 10459 10457 10456 10454 10452 10450 10448 10446 10444 10442 10440 10438 10436 10434 10431 10428 10426 10424 10422 10420 10417 10414 10412 10409 10406 10404 10401 10399 10397 10394 10392 10391 10388 10385 10383 10382 10380 10379 10377 10375 10375 10374 10373 10371 10367 10365 10369 10368 10362 10364 10368 10372 10375 10374 10370 10365 10363 10365 10368 10369 10366 10361 10357 10355 10358 10359 10352 10357 10373 10376 10371
10474 10473 10472 10471 10470 10470 10468 10467 10466 10464 10463 10461 10460 10458 10457 10455 10453 10451 10449 10447 10445 10443 10441 10440 10438 10436 10434 10432 10429 10427 10424 10421 10419 10417 10414 10412 10409 10406 10404 10401 10398 10395 10392 10389 10387 10386 10384 10381 10378 10376 10374 10372 10371 10370 10367 10364 10363 10362 10362 10360 10355 10354 10358 10356 10351 10353 10359 10360 10359 10357 10353 10350 10350 10353 10357 10359 10358 10353 10346 10342 10342 10342 10339 10343 10357 10361 10358
10470 10469 10468 10467 10466 10465 10464 10462 10461 10459 10458 10456 10454 10453 10451 10449 10447 10445 10442 10440 10438 10435 10434 10432 10430 10429 10427 10425 10422 10420 10418 10414 10411 10408 10406 10403 10400 10398 10395 10392 10389 10386 10384 10381 10378 10377 10374 10371 10369 10368 10366 10363 10361 10360 10358 10354 10352 10351 10350 10349 10346 10344 10346 10346 10341 10342 10349 10351 10344 10338 10336 10334 10335 10343 10350 10348 10342 10335 10330 10329 10331 10332 10330 10334 10341 10344 10348
10466 10464 10463 10462 10461 10460 10458 10457 10455 10453 10452 10450 10448 10446 10444 10442 10440 10437 10435 10433 10431 10429 10427 10425 10423 10421 10419 10417 10415 10413 10410 10407 10403 10400 10397 10394 10392 10389 10386 10382 10379 10377 10374 10372 10370 10368 10365 10363 10361 10359 10357 10355 10353 10350 10348 10345 10343 10341 10338 10336 10337 10334 10334 10335 10329 10328 10339 10342 10329 10322 10320 10318 10325 10338 10340 10331 10321 10317 10318 10320 10321 10321 10319 10321 10324 10327 10341
10461 10460 10458 10457 10456 10455 10453 10451 10449 10448 10446 10444 10442 10439 10437 10435 10432 10429 10427 10425 10423 10421 10419 10417 10415 10413 10411 10410 10408 10406 10403 10399 10395 10392 10388 10385 10383 10380 10377 10374 10371 10368 10364 10362 10360 10358 10356 10354 10352 10350 10349 10347 10344 10342 10340 10337 10334 10333 10329 10327 10327 10323 10320 10322 10316 10312 10324 10328 10316 10307 10304 10308 10321 10328 10319 10309 10306 10305 10307 10308 10308 10309 10307 10308 10312 10318 10330
10456 10454 10453 10452 10451 10450 10447 10445 10443 10441 10439 10437 10435 10432 10430 10427 10425 10422 10419 10417 10414 10412 10411 10409 10407 10404 10402 10401 10399 10397 10395 10392 10388 10384 10380 10376 10373 10371 10368 10365 10362 10360 10356 10352 10349 10348 10347 10345 10343 10342 10340 10338 10336 10334 10333 10330 10326 10323 10321 10318 10317 10312 10308 10308 10303 10299 10307 10311 10301 10292 10292 10302 10313 10310 10298 10294 10294 10292 10291 10295 10298 10299 10297 10297 10302 10308 10315
10450 10449 10448 10446 10445 10444 10442 10440 10437 10435 10433 10430 10427 10425 10422 10420 10417 10414 10412 10409 10406 10403 10401 10399 10398 10396 10394 10392 10390 10388 10385 10383 10380 10377 10372 10367 10363 10361 10359 10357 10354 10351 10347 10343 10339 10338 10338 10335 10333 10333 10331 10329 10328 10325 10324 10323 10318 10313 10311 10309 10306 10303 10297 10295 10292 10288 10290 10293 10286 10279 10283 10294 10298 10293 10286 10280 10277 10278 10281 10285 10289 10288 10284 10285 10289 10296 10300
10444 10443 10441 10440 10439 10437 10436 10434 10431 10428 10426 10423 10420 10418 10415 10413 10410 10407 10403 10400 10397 10394 10392 10390 10388 10387 10386 10384 10381 10379 10376 10373 10371 10368 10364 10359 10353 10350 10349 10348 10344 10341 10338 10335 10332 10330 10329 10326 10324 10323 10321 10318 10318 10316 10314 10313 10310 10304 10300 10297 10294 10290 10286 10282 10281 10278 10274 10275 10273 10268 10272 10282 10284 10280 10275 10266 10262 10266 10269 10272 10277 10274 10269 10271 10278 10285 10287
10438 10436 10435 10433 10432 10430 10429 10427 10424 10421 10419 10416 10413 10410 10408 10405 10403 10400 10396 10392 10388 10385 10383 10381 10379 10378 10377 10375 10373 10370 10367 10365 10362 10358 10354 10351 10346 10341 10338 10337 10334 10330 10328 10326 10324 10322 10321 10319 10317 10314 10311 10308 10307 10306 10304 10301 10299 10295 10290 10285 10280 10276 10272 10269 10268 10268 10263 10260 10261 10259 10260 10269 10272 10268 10261 10253 10251 10254 10254 10259 10266 10262 10255 10260 10270 10274 10274
10431 10429 10428 10426 10424 10423 10421 10419 10417 10414 10411 10409 10407 10404 10400 10397 10396 10393 10388 10383 10379 10376 10374 10372 10371 10369 10367 10365 10363 10361 10358 10355 10352 10349 10345 10341 10337 10333 10329 10326 10323 10319 10317 10316 10315 10313 10311 10309 10307 10305 10303 10299 10295 10296 10295 10291 10288 10286 10279 10273 10267 10262 10258 10254 10253 10257 10254 10248 10248 10250 10251 10257 10259 10254 10247 10241 10240 10241 10242 10248 10255 10249 10244 10252 10261 10264 10264
10424 10422 10420 10418 10417 10415 10413 10411 10409 10406 10403 10401 10399 10397 10393 10390 10388 10385 10380 10375 10371 10367 10365 10364 10362 10360 10357 10354 10353 10351 10349 10345 10341 10339 10335 10331 10327 10324 10321 10318 10312 10308 10307 10306 10304 10302 10300 10298 10296 10294 10293 10289 10285 10286 10286 10279 10275 10274 10268 10262 10257 10250 10244 10241 10238 10241 10240 10235 10236 10239 10242 10245 10245 10239 10234 10231 10230 10230 10230 10237 10243 10239 10237 10244 10250 10251 10252
10417 10414 10412 10410 10409 10407 10405 10403 10401 10398 10395 10392 10390 10388 10386 10383 10381 10377 10372 10367 10361 10358 10356 10355 10353 10351 10349 10345 10342 10341 10338 10335 10331 10329 10325 10319 10315 10313 10311 10308 10303 10299 10298 10296 10294 10292 10290 10287 10285 10283 10283 10280 10274 10274 10275 10269 10264 10262 10256 10250 10247 10240 10234 10231 10228 10227 10224 10221 10224 10228 10230 10232 10231 10226 10222 10221 10220 10219 10220 10226 10232 10230 10229 10235 10239 10238 10240
10409 10407 10405 10402 10400 10398 10396 10394 10392 10389 10386 10383 10381 10379 10377 10375 10373 10370 10365 10359 10353 10347 10346 10346 10344 10342 10341 10338 10333 10330 10327 10325 10322 10320 10316 10310 10305 10302 10299 10296 10292 10288 10287 10286 10284 10282 10280 10277 10274 10271 10273 10271 10263 10261 10262 10257 10251 10249 10244 10239 10236 10230 10225 10221 10217 10215 10213 10211 10212 10216 10217 10218 10218 10214 10211 10210 10210 10210 10212 10217 10220 10220 10222 10226 10227 10228 10232
10402 10399 10397 10394 10391 10389 10387 10385 10383 10380 10377 10374 10372 10370 10368 10366 10364 10361 10357 10352 10345 10337 10335 10336 10335 10332 10331 10329 10324 10319 10317 10314 10312 10309 10305 10300 10296 10293 10290 10285 10282 10278 10276 10274 10272 10269 10268 10267 10262 10258 10260 10258 10252 10248 10248 10244 10238 10236 10232 10229 10224 10219 10216 10211 10203 10202 10205 10203 10201 10204 10207 10206 10205 10203 10202 10201 10200 10201 10204 10207 10208 10211 10215 10218 10218 10221 10225
10394 10391 10388 10386 10383 10380 10378 10375 10373 10370 10367 10364 10362 10361 10359 10357 10355 10352 10348 10344 10339 10330 10324 10324 10325 10323 10322 10319 10314 10311 10308 10305 10302 10299 10295 10290 10287 10284 10280 10276 10272 10270 10267 10263 10261 10258 10256 10255 10252 10247 10246 10245 10240 10236 10235 10231 10226 10222 10218 10217 10214 10207 10203 10200 10193 10191 10194 10194 10192 10195 10197 10195 10194 10194 10193 10192 10191 10193 10195 10196 10199 10203 10207 10209 10211 10214 10217
10386 10383 10380 10377 10374 10371 10368 10366 10363 10360 10358 10355 10353 10351 10350 10348 10345 10342 10338 10334 10331 10324 10316 10313 10312 10311 10310 10308 10304 10302 10300 10295 10291 10288 10285 10281 10277 10274 10271 10266 10262 10261 10257 10253 10251 10249 10245 10244 10242 10237 10234 10232 10228 10223 10221 10218 10213 10208 10205 10204 10202 10195 10190 10189 10187 10183 10182 10184 10185 10186 10186 10186 10186 10186 10184 10183 10184 10186 10188 10188 10190 10195 10199 10201 10203 10206 10210
10377 10374 10371 10368 10365 10362 10359 10356 10353 10350 10347 10345 10343 10341 10339 10337 10334 10332 10328 10324 10321 10316 10309 10304 10301 10299 10298 10297 10293 10292 10290 10285 10280 10278 10275 10271 10267 10262 10259 10256 10252 10251 10247 10242 10240 10239 10235 10233 10230 10226 10222 10219 10214 10210 10209 10206 10202 10197 10193 10191 10190 10184 10180 10180 10179 10175 10174 10177 10177 10176 10177 10178 10178 10178 10176 10176 10178 10180 10181 10181 10183 10187 10191 10193 10195 10198 10203
10369 10366 10362 10359 10356 10353 10350 10346 10343 10340 10337 10335 10332 10330 10329 10326 10323 10320 10317 10314 10311 10306 10300 10296 10292 10288 10287 10287 10285 10282 10279 10275 10270 10267 10264 10262 10257 10252 10247 10244 10241 10240 10235 10231 10229 10227 10225 10222 10218 10213 10210 10207 10201 10197 10197 10196 10191 10188 10184 10180 10177 10173 10171 10171 10170 10167 10168 10171 10169 10166 10168 10170 10170 10170 10170 10169 10171 10173 10173 10173 10175 10179 10183 10186 10188 10192 10196
10360 10357 10353 10350 10347 10344 10341 10337 10333 10330 10327 10324 10321 10319 10318 10316 10312 10309 10305 10302 10300 10296 10290 10285 10281 10278 10277 10278 10276 10273 10269 10265 10260 10256 10254 10251 10248 10243 10237 10232 10230 10228 10224 10219 10216 10214 10213 10212 10207 10201 10200 10197 10190 10186 10186 10185 10181 10178 10175 10169 10164 10162 10161 10163 10164 10163 10162 10162 10159 10159 10162 10163 10163 10164 10164 10163 10164 10165 10165 10166 10169 10173 10177 10180 10182 10186 10190
10352 10348 10345 10341 10338 10335 10331 10327 10323 10320 10317 10314 10311 10308 10306 10304 10301 10298 10295 10292 10289 10286 10280 10273 10269 10267 10267 10268 10267 10263 10260 10256 10251 10246 10243 10240 10238 10234 10228 10222 10219 10218 10214 10209 10205 10201 10199 10198 10194 10190 10188 10186 10181 10176 10175 10173 10170 10169 10166 10159 10153 10153 10155 10156 10157 10158 10155 10151 10151 10154 10156 10156 10156 10157 10157 10156 10157 10159 10160 10162 10164 10168 10172 10175 10177 10180 10184
10342 10339 10335 10332 10328 10325 10321 10317 10313 10310 10306 10303 10300 10297 10294 10293 10289 10286 10284 10281 10279 10276 10271 10264 10258 10255 10256 10258 10257 10253 10251 10247 10242 10237 10234 10230 10227 10224 10219 10214 10209 10207 10204 10200 10195 10191 10186 10183 10181 10177 10175 10173 10171 10167 10165 10163 10160 10159 10155 10147 10143 10148 10151 10150 10150 10150 10146 10143 10146 10149 10149 10148 10149 10150 10150 10150 10151 10153 10155 10157 10159 10162 10167 10170 10171 10174 10178
10332 10328 10325 10321 10318 10314 10310 10306 10303 10299 10295 10292 10289 10286 10284 10282 10279 10276 10274 10271 10269 10266 10263 10258 10249 10243 10244 10248 10246 10242 10239 10237 10232 10228 10224 10221 10217 10213 10209 10205 10200 10196 10193 10190 10187 10181 10176 10172 10168 10165 10162 10162 10161 10158 10155 10153 10151 10149 10144 10137 10137 10143 10147 10145 10143 10142 10138 10138 10141 10143 10141 10141 10142 10143 10144 10144 10146 10148 10150 10152 10154 10157 10161 10164 10167 10170 10172
10321 10318 10315 10311 10307 10303 10300 10297 10293 10290 10286 10282 10279 10276 10274 10272 10270 10266 10263 10262 10259 10256 10254 10250 10243 10235 10234 10236 10236 10232 10228 10225 10221 10218 10213 10210 10207 10203 10199 10195 10191 10186 10182 10179 10176 10171 10166 10161 10157 10153 10151 10151 10151 10150 10146 10144 10142 10139 10134 10130 10133 10139 10140 10138 10136 10133 10130 10132 10135 10135 10133 10134 10136 10137 10137 10138 10140 10142 10144 10146 10149 10152 10155 10159 10161 10164 10166
10311 10307 10304 10301 10297 10293 10290 10287 10284 10281 10277 10273 10270 10266 10264 10263 10260 10257 10254 10252 10250 10248 10245 10242 10236 10229 10226 10226 10225 10221 10217 10214 10211 10207 10202 10198 10195 10193 10189 10185 10180 10176 10172 10168 10165 10161 10156 10151 10147 10144 10141 10140 10141 10140 10137 10136 10134 10130 10125 10125 10130 10133 10131 10129 10127 10125 10123 10126 10129 10128 10126 10129 10131 10131 10131 10133 10136 10138 10139 10141 10144 10146 10150 10153 10155 10157 10159
10301 10298 10295 10291 10287 10284 10281 10278 10275 10272 10269 10265 10261 10257 10255 10254 10251 10248 10245 10242 10240 10238 10236 10234 10229 10222 10217 10217 10215 10211 10206 10203 10200 10195 10191 10187 10183 10180 10178 10174 10169 10165 10161 10157 10154 10152 10147 10142 10138 10135 10132 10131 10131 10131 10129 10128 10125 10120 10118 10122 10126 10125 10122 10120 10120 10119 10119 10122 10124 10122 10121 10124 10125 10125 10126 10129 10132 10133 10134 10136 10138 10141 10144 10146 10149 10151 10153
10292 10289 10286 10282 10278 10275 10273 10270 10267 10264 10260 10257 10253 10250 10247 10245 10242 10240 10237 10233 10230 10228 10226 10225 10222 10215 10209 10207 10205 10200 10196 10192 10188 10184 10180 10176 10172 10168 10165 10161 10157 10153 10150 10147 10144 10140 10138 10135 10132 10128 10124 10124 10124 10123 10121 10119 10116 10113 10114 10117 10118 10115 10113 10114 10115 10115 10115 10117 10118 10117 10117 10119 10120 10119 10121 10124 10126 10128 10129 10131 10133 10136 10138 10140 10143 10146 10148
10283 10280 10277 10273 10270 10267 10265 10262 10259 10255 10252 10248 10245 10242 10240 10237 10234 10232 10229 10226 10223 10220 10217 10216 10214 10209 10203 10198 10193 10190 10186 10181 10176 10172 10168 10164 10160 10156 10152 10149 10146 10142 10138 10136 10133 10129 10127 10126 10124 10120 10116 10117 10117 10114 10112 10111 10110 10108 10108 10109 10108 10107 10107 10108 10109 10109 10110 10111 10112 10111 10111 10113 10114 10115 10117 10119 10121 10123 10125 10126 10128 10131 10133 10135 10138 10141 10143
10276 10272 10269 10265 10262 10259 10256 10254 10250 10247 10244 10240 10237 10234 10232 10229 10226 10224 10221 10218 10215 10212 10209 10208 10206 10202 10197 10192 10185 10180 10177 10172 10165 10160 10157 10152 10148 10145 10142 10138 10134 10131 10128 10125 10122 10119 10118 10116 10114 10111 10109 10109 10108 10105 10104 10104 10103 10101 10100 10101 10102 10102 10102 10102 10103 10103 10104 10105 10105 10104 10105 10107 10109 10110 10112 10114 10116 10118 10120 10122 10124 10127 10129 10131 10134 10136 10138
10268 10265 10261 10258 10255 10251 10248 10246 10243 10239 10237 10233 10229 10226 10224 10221 10218 10216 10213 10210 10208 10204 10200 10198 10196 10193 10190 10185 10177 10171 10167 10162 10156 10150 10146 10142 10138 10135 10132 10129 10124 10121 10118 10115 10112 10111 10110 10107 10104 10103 10102 10101 10100 10097 10097 10097 10096 10094 10094 10096 10096 10096 10096 10096 10096 10097 10098 10099 10099 10099 10100 10102 10104 10106 10108 10110 10112 10114 10116 10118 10120 10123 10125 10127 10129 10131 10133
10260 10258 10254 10250 10247 10244 10241 10238 10236 10232 10229 10226 10222 10218 10215 10214 10211 10208 10205 10202 10199 10195 10191 10188 10186 10183 10180 10175 10169 10163 10157 10151 10145 10140 10136 10132 10128 10124 10122 10120 10115 10111 10109 10106 10103 10102 10101 10099 10096 10095 10095 10094 10092 10090 10090 10089 10088 10088 10089 10090 10090 10090 10089 10089 10090 10092 10093 10093 10093 10094 10096 10098 10100 10102 10104 10106 10108 10110 10112 10114 10116 10119 10121 10122 10124 10126 10129
10253 10251 10247 10243 10240 10236 10233 10231 10228 10225 10222 10219 10216 10212 10208 10205 10203 10200 10196 10193 10189 10185 10182 10178 10174 10172 10169 10165 10160 10155 10148 10141 10135 10130 10126 10122 10118 10115 10112 10109 10106 10103 10100 10097 10095 10094 10093 10091 10089 10088 10088 10087 10085 10084 10083 10083 10082 10082 10083 10084 10084 10084 10083 10084 10086 10087 10088 10088 10089 10090 10093 10094 10096 10098 10100 10102 10103 10105 10108 10110 10112 10114 10116 10118 10120 10122 10125
10245 10243 10240 10236 10232 10229 10226 10223 10220 10217 10214 10211 10208 10205 10201 10198 10194 10191 10187 10183 10179 10174 10172 10169 10164 10160 10157 10153 10148 10144 10140 10134 10127 10121 10116 10111 10109 10107 10104 10101 10098 10095 10091 10089 10088 10087 10085 10084 10082 10082 10081 10080 10079 10078 10077 10077 10076 10077 10078 10078 10078 10078 10079 10080 10081 10082 10083 10083 10084 10086 10089 10090 10091 10093 10095 10097 10099 10101 10103 10105 10108 10110 10111 10113 10114 10116 10119
10237 10236 10233 10230 10226 10222 10218 10215 10212 10209 10206 10202 10199 10197 10194 10190 10186 10182 10178 10174 10170 10165 10160 10156 10153 10149 10146 10141 10135 10132 10130 10127 10121 10114 10108 10104 10101 10098 10095 10092 10090 10087 10084 10082 10082 10080 10078 10077 10076 10075 10074 10073 10072 10072 10072 10072 10071 10072 10072 10073 10073 10073 10074 10075 10076 10077 10078 10079 10080 10082 10084 10085 10086 10088 10090 10092 10094 10096 10098 10100 10103 10104 10105 10106 10108 10110 10114
10229 10227 10225 10223 10220 10216 10212 10208 10204 10201 10198 10195 10192 10190 10187 10183 10179 10175 10170 10165 10161 10156 10151 10145 10140 10138 10135 10131 10124 10119 10118 10117 10113 10107 10101 10097 10094 10090 10086 10084 10083 10080 10078 10077 10075 10073 10071 10070 10070 10069 10068 10067 10067 10066 10066 10066 10066 10067 10068 10068 10068 10069 10069 10070 10071 10073 10074 10075 10076 10078 10079 10080 10081 10083 10085 10087 10089 10091 10094 10096 10098 10098 10099 10101 10104 10108 10112
10222 10220 10218 10215 10213 10210 10206 10202 10199 10195 10192 10188 10185 10182 10179 10174 10170 10166 10161 10156 10151 10147 10142 10137 10131 10127 10126 10122 10116 10110 10107 10106 10103 10099 10094 10090 10087 10083 10080 10077 10076 10074 10072 10071 10069 10066 10065 10064 10064 10063 10063 10062 10061 10061 10061 10061 10061 10062 10063 10063 10064 10064 10065 10066 10067 10069 10070 10071 10072 10073 10075 10076 10077 10079 10081 10083 10085 10087 10089 10092 10093 10094 10095 10099 10102 10106 10110
10214 10212 10210 10207 10204 10202 10199 10196 10192 10189 10185 10181 10177 10174 10170 10166 10162 10157 10153 10148 10142 10136 10132 10129 10123 10118 10116 10113 10108 10103 10099 10095 10092 10090 10086 10082 10079 10076 10073 10071 10070 10068 10066 10064 10062 10060 10059 10059 10058 10058 10057 10056 10056 10056 10055 10056 10057 10057 10058 10059 10059 10060 10061 10062 10063 10065 10066 10067 10068 10069 10071 10072 10074 10075 10077 10079 10082 10084 10086 10087 10089 10090 10092 10095 10098 10101 10105
10207 10205 10202 10199 10196 10193 10191 10188 10184 10181 10177 10173 10169 10166 10161 10158 10154 10148 10144 10140 10135 10128 10123 10119 10114 10109 10107 10104 10099 10095 10091 10087 10083 10080 10078 10075 10072 10069 10067 10065 10063 10061 10059 10058 10056 10055 10055 10054 10054 10053 10052 10051 10051 10051 10051 10051 10052 10053 10054 10055 10056 10056 10057 10058 10059 10061 10063 10064 10065 10066 10067 10069 10070 10071 10073 10076 10078 10080 10082 10083 10084 10086 10088 10091 10094 10097 10100
10202 10199 10196 10193 10189 10186 10184 10181 10177 10174 10170 10166 10162 10158 10154 10150 10146 10140 10135 10131 10127 10121 10117 10112 10107 10102 10099 10096 10092 10088 10085 10081 10077 10073 10071 10068 10065 10062 10060 10058 10057 10055 10054 10052 10051 10050 10050 10049 10049 10048 10047 10046 10046 10046 10046 10047 10048 10049 10050 10051 10052 10053 10054 10055 10056 10058 10059 10060 10062 10063 10064 10065 10066 10068 10070 10072 10074 10076 10078 10079 10080 10082 10084 10086 10089 10091 10094
10196 10193 10190 10186 10183 10180 10178 10175 10171 10167 10163 10159 10154 10150 10145 10142 10137 10132 10126 10122 10117 10113 10109 10106 10101 10095 10091 10088 10084 10081 10078 10074 10071 10067 10064 10061 10059 10056 10054 10052 10051 10049 10048 10047 10046 10046 10045 10044 10044 10043 10042 10042 10042 10042 10042 10043 10044 10045 10046 10047 10048 10049 10051 10052 10052 10053 10055 10056 10058 10059 10060 10061 10062 10064 10065 10067 10069 10071 10073 10074 10075 10077 10079 10081 10083 10085 10087
10188 10186 10184 10180 10177 10174 10172 10169 10165 10160 10156 10151 10147 10142 10138 10134 10129 10123 10118 10113 10108 10104 10101 10098 10094 10088 10084 10080 10077 10073 10070 10067 10064 10061 10058 10055 10053 10051 10048 10047 10045 10044 10043 10042 10042 10041 10040 10040 10039 10038 10038 10038 10038 10038 10038 10039 10040 10041 10042 10043 10044 10046 10047 10047 10048 10049 10051 10053 10054 10055 10056 10057 10058 10059 10061 10063 10065 10066 10067 10069 10070 10072 10074 10075 10077 10079 10081
10182 10179 10176 10174 10171 10167 10164 10161 10158 10154 10149 10144 10139 10135 10131 10127 10122 10116 10111 10106 10101 10096 10093 10090 10086 10081 10077 10073 10070 10067 10063 10060 10058 10055 10052 10049 10047 10045 10043 10042 10041 10040 10039 10038 10037 10036 10036 10035 10035 10034 10034 10034 10034 10034 10034 10034 10036 10037 10038 10039 10040 10042 10043 10043 10044 10045 10047 10049 10050 10051 10052 10053 10054 10055 10057 10059 10060 10062 10064 10066 10068 10070 10071 10072 10073 10075 10078
10176 10173 10170 10167 10164 10160 10157 10153 10150 10147 10142 10137 10132 10127 10123 10119 10114 10109 10104 10099 10094 10089 10085 10082 10079 10075 10071 10067 10063 10060 10057 10054 10052 10049 10046 10044 10041 10040 10038 10037 10036 10035 10034 10033 10032 10032 10031 10031 10031 10031 10030 10030 10030 10030 10030 10030 10031 10033 10034 10035 10036 10038 10039 10040 10041 10042 10043 10044 10046 10047 10048 10048 10049 10051 10052 10054 10056 10058 10060 10062 10064 10066 10067 10068 10070 10072 10074
10170 10167 10164 10161 10157 10154 10150 10147 10143 10139 10135 10130 10125 10119 10115 10111 10106 10101 10097 10092 10088 10083 10079 10075 10071 10068 10065 10061 10057 10054 10051 10049 10046 10044 10041 10038 10036 10035 10033 10032 10031 10031 10030 10029 10028 10027 10027 10027 10027 10027 10027 10027 10027 10026 10026 10026 10027 10029 10030 10031 10032 10034 10035 10036 10037 10038 10038 10040 10041 10042 10043 10044 10045 10046 10048 10050 10052 10054 10056 10057 10059 10061 10062 10063 10065 10066 10069
10164 10162 10158 10154 10151 10147 10143 10139 10135 10131 10127 10124 10119 10114 10109 10104 10099 10094 10089 10085 10080 10076 10073 10069 10065 10061 10058 10054 10051 10048 10046 10043 10041 10038 10036 10033 10032 10030 10029 10027 10026 10026 10025 10024 10023 10022 10022 10023 10023 10023 10023 10023 10023 10023 10022 10022 10023 10025 10026 10027 10028 10030 10031 10032 10033 10034 10035 10036 10037 10038 10039 10040 10041 10042 10044 10045 10047 10049 10051 10053 10054 10056 10057 10059 10060 10061 10064
10158 10155 10152 10148 10144 10141 10137 10132 10127 10123 10119 10115 10112 10108 10104 10099 10094 10089 10084 10079 10075 10070 10067 10064 10060 10057 10053 10049 10045 10043 10040 10038 10035 10033 10030 10028 10027 10026 10024 10023 10022 10021 10020 10019 10019 10018 10018 10019 10020 10020 10019 10019 10019 10019 10019 10019 10020 10021 10022 10023 10024 10025 10027 10028 10029 10030 10031 10032 10033 10034 10035 10036 10037 10038 10039 10041 10042 10044 10046 10048 10049 10051 10053 10054 10056 10057 10059
10151 10149 10145 10142 10138 10135 10131 10126 10121 10116 10112 10108 10104 10100 10096 10093 10088 10083 10079 10074 10070 10065 10061 10057 10054 10051 10048 10044 10041 10038 10035 10033 10030 10028 10025 10023 10022 10021 10020 10018 10017 10016 10015 10015 10015 10015 10015 10016 10016 10016 10016 10016 10015 10015 10015 10015 10016 10017 10018 10020 10021 10021 10022 10024 10025 10026 10027 10028 10029 10030 10031 10032 10033 10034 10035 10036 10038 10039 10041 10043 10044 10046 10048 10049 10051 10053 10054
10146 10143 10139 10135 10131 10128 10124 10120 10115 10109 10105 10101 10097 10093 10090 10086 10082 10077 10073 10069 10065 10060 10056 10052 10049 10046 10042 10039 10036 10033 10031 10028 10026 10023 10021 10019 10018 10016 10015 10013 10012 10012 10011 10011 10011 10011 10012 10012 10012 10012 10012 10012 10011 10011 10011 10011 10012 10013 10014 10016 10017 10018 10019 10020 10021 10022 10023 10023 10024 10025 10026 10027 10028 10029 10030 10031 10033 10034 10036 10037 10039 10041 10043 10044 10046 10048 10050